Regional Weather Roundup
Issued by NWS

Home | Current Version | Previous Version | Graphics & Text | Print | Product List | Glossary Off
Versions: 1 2 3 4 5 6 7 8 9 10 11 12 13 14 15 16 17 18 19 20 21 22 23 24 25 26 27 28 29 30 31 32 33 34 35 36 37 38 39 40 41 42 43 44 45 46 47 48 49 50

000
ASUS43 KDMX 252206
RWRIA

WEATHER ROUNDUP FOR IOWA
NATIONAL WEATHER SERVICE DES MOINES IA
500 PM CDT TUE JUL 25 2017

NOTE: "FAIR" INDICATES FEW OR NO CLOUDS BELOW 12,000 FEET WITH NO
SIGNIFICANT WEATHER AND/OR OBSTRUCTIONS TO VISIBILITY.

* - THESE STATIONS ARE NOT NWS STATIONS...THUS NOT UNDER NWS
QUALITY CONTROL.  THEY ALSO DO NOT REPORT WEATHER SUCH
AS PRECIPITATION OR FOG.

IAZ001>003-012>014-020>022-031>034-043>046-252300-
   NORTHWEST IOWA

CITY           SKY/WX    TMP DP  RH WIND       PRES   REMARKS
CARROLL *      SUNNY     90  75  62 S15       29.97F HX 100
CHEROKEE *     SUNNY     92  74  55 S16G23    29.91F HX 100
DENISON *      SUNNY     90  75  62 S12G23    29.98F HX 100
ORANGE CITY *  CLOUDY    93  73  52 S17G24    29.88F HX 102
SHELDON *      MOSUNNY   90  75  62 S15G24    29.87F HX 100
SIOUX CITY     SUNNY     94  74  52 S17G26    29.89F HX 104
SPENCER        SUNNY     91  71  51 S18G29    29.90F HX  97
STORM LAKE *   SUNNY     90  73  58 S20G26    29.95F HX  98
$$

IAZ055>058-069>071-079>083-090>094-252300-
   SOUTHWEST IOWA

CITY           SKY/WX    TMP DP  RH WIND       PRES   REMARKS
ATLANTIC *     SUNNY     91  75  59 S15       29.99F HX 102
AUDUBON *      SUNNY     91  75  59 S13G20    30.00F HX 102
CLARINDA *     SUNNY     90  77  66 S12       30.02F HX 102
COUNCIL BLFS * SUNNY     91  77  62 S16G22    29.98F HX 105
CRESTON *      SUNNY     91  72  52 S16       30.04F HX  98
HARLAN  *      SUNNY     91  75  59 S10G18    30.02F HX 102
LAMONI         SUNNY     89  74  60 SE10      30.05F HX  98
RED OAK *      SUNNY     91  77  62 SE13      30.00F HX 105
SHENANDOAH *   SUNNY     91  73  55 S10G21    29.99F HX 100
$$

IAZ047>049-059>061-072>074-084-252300-
   CENTRAL IOWA

CITY           SKY/WX    TMP DP  RH WIND       PRES   REMARKS
AMES           SUNNY     89  75  63 SE15      30.00F HX  99
ANKENY *       SUNNY     91  73  55 S8G15     30.01F HX 100
BOONE *        SUNNY     91  73  55 S13       29.99F HX 100
CHARITON *     SUNNY     91  70  49 SE13G18   30.03F HX  97
DES MOINES     MOSUNNY   95  70  44 SE14      29.99F HX 101
GRINNELL*      SUNNY     87  69  53 SE10      30.06F HX  91
KNOXVILLE *    SUNNY     90  68  48 S14       30.02F HX  93
MARSHALLTOWN   SUNNY     87  71  58 S18G24    30.02F HX  93
NEWTON *       SUNNY     88  72  58 SE13      30.03F HX  94
PELLA *        SUNNY     92  68  45 SE9       30.04F HX  95
PERRY *          N/A     90  74  60 S9        30.00F HX  99
$$

IAZ004>006-015-016-023>025-035-036-252300-
   NORTH CENTRAL IOWA

CITY           SKY/WX    TMP DP  RH WIND       PRES   REMARKS
ALGONA *       SUNNY     90  73  58 S20       29.95F HX  98
ESTHERVILLE    CLOUDY    87  73  62 S15G26    29.90F HX  94
FORT DODGE *   SUNNY     91  72  52 S16       29.98F HX  98
MASON CITY     SUNNY     85  71  63 S17       30.00F HX  90
FOREST CITY *    N/A     86  72  62 S18G25    29.98F HX  92
WEBSTER CITY * SUNNY     90  73  58 SE13      29.97F HX  98
IOWA FALLS *     N/A     87  72  60 S15       30.03F HX  94
$$

IAZ007>011-017>019-026>030-037>042-050>054-066-252300-
   NORTHEAST IOWA

CITY           SKY/WX    TMP DP  RH WIND       PRES   REMARKS
CEDAR RAPIDS   SUNNY     81  71  71 S13       30.07F HX  85
CHARLES CITY * SUNNY     82  72  69 S17G23    30.03F HX  87
DECORAH *      SUNNY     79  68  69 S12G21    30.04F HX  81
DUBUQUE        SUNNY     77  66  68 S13G23    30.10F
MONTICELLO *   SUNNY     81  68  65 S12G20    30.08F HX  83
OELWEIN *      SUNNY     81  70  69 S17G24    30.06F HX  84
WATERLOO       SUNNY     83  68  60 S17       30.02F HX  86
$$

IAZ064-065-067-068-078-252300-
   EAST CENTRAL IOWA

CITY           SKY/WX    TMP DP  RH WIND       PRES   REMARKS
DAVENPORT      MOSUNNY   80  66  62 S8        30.13F HX  82
IOWA CITY      SUNNY     84  69  60 S14       30.09F HX  88
MT. PLEASANT * MOSUNNY   86  67  53 SE7       30.09S HX  89
MUSCATINE *    MOSUNNY   84  68  58 S9        30.09F HX  87
QUAD CITIES    MOSUNNY   82  67  60 S10       30.10F HX  84
$$

IAZ062-063-075>077-085>089-095>099-252300-
   SOUTHEAST IOWA

CITY           SKY/WX    TMP DP  RH WIND       PRES   REMARKS
BURLINGTON     SUNNY     85  71  63 SE8       30.09F HX  90
FAIRFIELD *    SUNNY     88  66  48 SE9       30.07S HX  90
FORT MADISON * SUNNY     84  70  61 SE6       30.10S HX  88
KEOKUK *       SUNNY     86  68  54 SE13      30.07F HX  89
OSKALOOSA *      N/A     89  66  46 SE9       30.06S HX  92
CENTERVILLE *    N/A     90  72  55 SE6       30.07F HX  96
OTTUMWA        SUNNY     91  67  44 S12       30.05F HX  94
WASHINGTON *   SUNNY     84  70  61 SE10      30.09F HX  88
$$

ABBREVIATIONS USED IN REMARKS
   TC - TEMPERATURES IN CELSIUS
  WCI - WIND CHILL INDEX
   HX - HEAT INDEX
  VSB - VISIBILITY
$$





USA.gov is the U.S. government's official web portal to all federal, state and local government web resources and services.